owner,sensor,date,latitude,longitude,vertical_datum,sea_water_temperature,qcFlag 
SCCF RECON,ioos:station:SCCF:13:1,2019-09-01T04:00:00Z,26.5255,-82.0032,2.33,30.39,11111222 
SCCF RECON,ioos:station:SCCF:13:1,2019-09-01T05:00:00Z,26.5255,-82.0032,2.33,30.23,11111222 
SCCF RECON,ioos:station:SCCF:13:1,2019-09-01T06:00:00Z,26.5255,-82.0032,2.33,30.36,11111222 
SCCF RECON,ioos:station:SCCF:13:1,2019-09-01T07:00:00Z,26.5255,-82.0032,2.33,30.13,11111222 
SCCF RECON,ioos:station:SCCF:13:1,2019-09-01T08:00:00Z,26.5255,-82.0032,2.33,30.05,11111222 
SCCF RECON,ioos:station:SCCF:13:1,2019-09-01T09:00:00Z,26.5255,-82.0032,2.33,30.06,11111222 
SCCF RECON,ioos:station:SCCF:13:1,2019-09-01T10:00:00Z,26.5255,-82.0032,2.33,30.07,11111222 
SCCF RECON,ioos:station:SCCF:13:1,2019-09-01T11:00:00Z,26.5255,-82.0032,2.33,30.0,11111222 
SCCF RECON,ioos:station:SCCF:13:1,2019-09-01T12:00:00Z,26.5255,-82.0032,2.33,29.52,11111222 
SCCF RECON,ioos:station:SCCF:13:1,2019-09-01T13:00:00Z,26.5255,-82.0032,2.33,29.59,11111222 
SCCF RECON,ioos:station:SCCF:13:1,2019-09-01T14:00:00Z,26.5255,-82.0032,2.33,29.65,11111222 
SCCF RECON,ioos:station:SCCF:13:1,2019-09-01T15:00:00Z,26.5255,-82.0032,2.33,30.03,11111222 
SCCF RECON,ioos:station:SCCF:13:1,2019-09-01T16:00:00Z,26.5255,-82.0032,2.33,29.93,11111222 
SCCF RECON,ioos:station:SCCF:13:1,2019-09-01T17:00:00Z,26.5255,-82.0032,2.33,30.51,11111222 
SCCF RECON,ioos:station:SCCF:13:1,2019-09-01T18:00:00Z,26.5255,-82.0032,2.33,30.67,11111222 
SCCF RECON,ioos:station:SCCF:13:1,2019-09-01T19:00:00Z,26.5255,-82.0032,2.33,30.8,11111222 
SCCF RECON,ioos:station:SCCF:13:1,2019-09-01T20:00:00Z,26.5255,-82.0032,2.33,31.0,11111222 
SCCF RECON,ioos:station:SCCF:13:1,2019-09-01T21:00:00Z,26.5255,-82.0032,2.33,30.68,11111222 
SCCF RECON,ioos:station:SCCF:13:1,2019-09-01T22:00:00Z,26.5255,-82.0032,2.33,30.74,11111222 
SCCF RECON,ioos:station:SCCF:13:1,2019-09-01T23:00:00Z,26.5255,-82.0032,2.33,30.74,11111222 
SCCF RECON,ioos:station:SCCF:13:1,2019-09-02T04:00:00Z,26.5255,-82.0032,2.33,30.45,11111222 
SCCF RECON,ioos:station:SCCF:13:1,2019-09-02T05:00:00Z,26.5255,-82.0032,2.33,30.3,11111222 
SCCF RECON,ioos:station:SCCF:13:1,2019-09-02T06:00:00Z,26.5255,-82.0032,2.33,30.2,11111222 
SCCF RECON,ioos:station:SCCF:13:1,2019-09-02T07:00:00Z,26.5255,-82.0032,2.33,30.26,11111222 
SCCF RECON,ioos:station:SCCF:13:1,2019-09-02T08:00:00Z,26.5255,-82.0032,2.33,30.14,11111222 
SCCF RECON,ioos:station:SCCF:13:1,2019-09-02T09:00:00Z,26.5255,-82.0032,2.33,30.06,11111222 
SCCF RECON,ioos:station:SCCF:13:1,2019-09-02T10:00:00Z,26.5255,-82.0032,2.33,30.11,11111222 
SCCF RECON,ioos:station:SCCF:13:1,2019-09-02T11:00:00Z,26.5255,-82.0032,2.33,30.0,11111222 
SCCF RECON,ioos:station:SCCF:13:1,2019-09-02T12:00:00Z,26.5255,-82.0032,2.33,29.58,11111222 
SCCF RECON,ioos:station:SCCF:13:1,2019-09-02T13:00:00Z,26.5255,-82.0032,2.33,29.63,11111222 
SCCF RECON,ioos:station:SCCF:13:1,2019-09-02T16:00:00Z,26.5255,-82.0032,2.33,30.31,11111222 
SCCF RECON,ioos:station:SCCF:13:1,2019-09-02T17:00:00Z,26.5255,-82.0032,2.33,30.34,11111222 
SCCF RECON,ioos:station:SCCF:13:1,2019-09-02T18:00:00Z,26.5255,-82.0032,2.33,30.44,11111222 
SCCF RECON,ioos:station:SCCF:13:1,2019-09-02T19:00:00Z,26.5255,-82.0032,2.33,30.33,11111222 
SCCF RECON,ioos:station:SCCF:13:1,2019-09-02T20:00:00Z,26.5255,-82.0032,2.33,30.76,11111222 
SCCF RECON,ioos:station:SCCF:13:1,2019-09-02T21:00:00Z,26.5255,-82.0032,2.33,30.74,11111222 
SCCF RECON,ioos:station:SCCF:13:1,2019-09-02T22:00:00Z,26.5255,-82.0032,2.33,30.72,11111222 
SCCF RECON,ioos:station:SCCF:13:1,2019-09-02T23:00:00Z,26.5255,-82.0032,2.33,30.77,11111222 
SCCF RECON,ioos:station:SCCF:13:1,2019-09-03T04:00:00Z,26.5255,-82.0032,2.33,30.23,11111222 
SCCF RECON,ioos:station:SCCF:13:1,2019-09-03T05:00:00Z,26.5255,-82.0032,2.33,30.19,11111222 
SCCF RECON,ioos:station:SCCF:13:1,2019-09-03T06:00:00Z,26.5255,-82.0032,2.33,30.12,11111222 
SCCF RECON,ioos:station:SCCF:13:1,2019-09-03T07:00:00Z,26.5255,-82.0032,2.33,30.18,11111222 
SCCF RECON,ioos:station:SCCF:13:1,2019-09-03T08:00:00Z,26.5255,-82.0032,2.33,29.99,11111222 
SCCF RECON,ioos:station:SCCF:13:1,2019-09-03T09:00:00Z,26.5255,-82.0032,2.33,29.82,11111222 
SCCF RECON,ioos:station:SCCF:13:1,2019-09-03T10:00:00Z,26.5255,-82.0032,2.33,29.78,11111222 
SCCF RECON,ioos:station:SCCF:13:1,2019-09-03T11:00:00Z,26.5255,-82.0032,2.33,29.86,11111222 
SCCF RECON,ioos:station:SCCF:13:1,2019-09-03T12:00:00Z,26.5255,-82.0032,2.33,29.71,11111222 
SCCF RECON,ioos:station:SCCF:13:1,2019-09-03T13:00:00Z,26.5255,-82.0032,2.33,29.46,11111222 
SCCF RECON,ioos:station:SCCF:13:1,2019-09-03T14:00:00Z,26.5255,-82.0032,2.33,29.52,11111222 
SCCF RECON,ioos:station:SCCF:13:1,2019-09-03T15:00:00Z,26.5255,-82.0032,2.33,29.71,11111222 
SCCF RECON,ioos:station:SCCF:13:1,2019-09-03T16:00:00Z,26.5255,-82.0032,2.33,29.81,11111222 
SCCF RECON,ioos:station:SCCF:13:1,2019-09-03T17:00:00Z,26.5255,-82.0032,2.33,30.07,11111222 
SCCF RECON,ioos:station:SCCF:13:1,2019-09-03T18:00:00Z,26.5255,-82.0032,2.33,30.06,11111222 
SCCF RECON,ioos:station:SCCF:13:1,2019-09-03T19:00:00Z,26.5255,-82.0032,2.33,30.33,11111222 
SCCF RECON,ioos:station:SCCF:13:1,2019-09-03T20:00:00Z,26.5255,-82.0032,2.33,30.33,11111222 
SCCF RECON,ioos:station:SCCF:13:1,2019-09-03T21:00:00Z,26.5255,-82.0032,2.33,30.47,11111222 
SCCF RECON,ioos:station:SCCF:13:1,2019-09-03T22:00:00Z,26.5255,-82.0032,2.33,30.56,11111222 
SCCF RECON,ioos:station:SCCF:13:1,2019-09-03T23:00:00Z,26.5255,-82.0032,2.33,30.49,11111222 
SCCF RECON,ioos:station:SCCF:13:1,2019-09-04T04:00:00Z,26.5255,-82.0032,2.33,29.95,11111222 
SCCF RECON,ioos:station:SCCF:13:1,2019-09-04T05:00:00Z,26.5255,-82.0032,2.33,29.78,11111222 
SCCF RECON,ioos:station:SCCF:13:1,2019-09-04T06:00:00Z,26.5255,-82.0032,2.33,29.78,11111222 
SCCF RECON,ioos:station:SCCF:13:1,2019-09-04T07:00:00Z,26.5255,-82.0032,2.33,29.79,11111222 
SCCF RECON,ioos:station:SCCF:13:1,2019-09-04T08:00:00Z,26.5255,-82.0032,2.33,29.88,11111222 
SCCF RECON,ioos:station:SCCF:13:1,2019-09-04T09:00:00Z,26.5255,-82.0032,2.33,29.78,11111222 
SCCF RECON,ioos:station:SCCF:13:1,2019-09-04T10:00:00Z,26.5255,-82.0032,2.33,29.78,11111222 
SCCF RECON,ioos:station:SCCF:13:1,2019-09-04T11:00:00Z,26.5255,-82.0032,2.33,29.74,11111222 
SCCF RECON,ioos:station:SCCF:13:1,2019-09-04T12:00:00Z,26.5255,-82.0032,2.33,29.74,11111222 
SCCF RECON,ioos:station:SCCF:13:1,2019-09-04T13:00:00Z,26.5255,-82.0032,2.33,29.56,11111222 
SCCF RECON,ioos:station:SCCF:13:1,2019-09-04T14:00:00Z,26.5255,-82.0032,2.33,29.52,11111222 
SCCF RECON,ioos:station:SCCF:13:1,2019-09-04T15:00:00Z,26.5255,-82.0032,2.33,29.55,11111222 
SCCF RECON,ioos:station:SCCF:13:1,2019-09-04T16:00:00Z,26.5255,-82.0032,2.33,29.81,11111222 
SCCF RECON,ioos:station:SCCF:13:1,2019-09-04T17:00:00Z,26.5255,-82.0032,2.33,29.95,11111222 
SCCF RECON,ioos:station:SCCF:13:1,2019-09-04T18:00:00Z,26.5255,-82.0032,2.33,30.07,11111222 
SCCF RECON,ioos:station:SCCF:13:1,2019-09-04T19:00:00Z,26.5255,-82.0032,2.33,30.08,11111222 
SCCF RECON,ioos:station:SCCF:13:1,2019-09-04T20:00:00Z,26.5255,-82.0032,2.33,30.34,11111222 
SCCF RECON,ioos:station:SCCF:13:1,2019-09-04T21:00:00Z,26.5255,-82.0032,2.33,30.37,11111222 
SCCF RECON,ioos:station:SCCF:13:1,2019-09-04T22:00:00Z,26.5255,-82.0032,2.33,30.33,11111222 
SCCF RECON,ioos:station:SCCF:13:1,2019-09-04T23:00:00Z,26.5255,-82.0032,2.33,30.27,11111222 
SCCF RECON,ioos:station:SCCF:13:1,2019-09-05T04:00:00Z,26.5255,-82.0032,2.33,29.96,11111222 
SCCF RECON,ioos:station:SCCF:13:1,2019-09-05T05:00:00Z,26.5255,-82.0032,2.33,29.83,11111222 
SCCF RECON,ioos:station:SCCF:13:1,2019-09-05T06:00:00Z,26.5255,-82.0032,2.33,29.86,11111222 
SCCF RECON,ioos:station:SCCF:13:1,2019-09-05T07:00:00Z,26.5255,-82.0032,2.33,29.94,11111222 
SCCF RECON,ioos:station:SCCF:13:1,2019-09-05T08:00:00Z,26.5255,-82.0032,2.33,29.74,11111222 
SCCF RECON,ioos:station:SCCF:13:1,2019-09-05T09:00:00Z,26.5255,-82.0032,2.33,29.82,11111222 
SCCF RECON,ioos:station:SCCF:13:1,2019-09-05T10:00:00Z,26.5255,-82.0032,2.33,29.64,11111222 
SCCF RECON,ioos:station:SCCF:13:1,2019-09-05T11:00:00Z,26.5255,-82.0032,2.33,29.56,11111222 
SCCF RECON,ioos:station:SCCF:13:1,2019-09-05T12:00:00Z,26.5255,-82.0032,2.33,29.4,11111222 
SCCF RECON,ioos:station:SCCF:13:1,2019-09-05T13:00:00Z,26.5255,-82.0032,2.33,29.48,11111222 
SCCF RECON,ioos:station:SCCF:13:1,2019-09-05T14:00:00Z,26.5255,-82.0032,2.33,29.57,11111222 
SCCF RECON,ioos:station:SCCF:13:1,2019-09-05T15:00:00Z,26.5255,-82.0032,2.33,29.73,11111222 
SCCF RECON,ioos:station:SCCF:13:1,2019-09-05T16:00:00Z,26.5255,-82.0032,2.33,29.85,11111222 
SCCF RECON,ioos:station:SCCF:13:1,2019-09-05T17:00:00Z,26.5255,-82.0032,2.33,30.13,11111222 
SCCF RECON,ioos:station:SCCF:13:1,2019-09-05T18:00:00Z,26.5255,-82.0032,2.33,30.33,11111222 
SCCF RECON,ioos:station:SCCF:13:1,2019-09-05T19:00:00Z,26.5255,-82.0032,2.33,30.4,11111222 
SCCF RECON,ioos:station:SCCF:13:1,2019-09-05T20:00:00Z,26.5255,-82.0032,2.33,30.55,11111222 
SCCF RECON,ioos:station:SCCF:13:1,2019-09-05T21:00:00Z,26.5255,-82.0032,2.33,30.53,11111222 
SCCF RECON,ioos:station:SCCF:13:1,2019-09-05T22:00:00Z,26.5255,-82.0032,2.33,31.17,11111222 
SCCF RECON,ioos:station:SCCF:13:1,2019-09-05T23:00:00Z,26.5255,-82.0032,2.33,31.08,11111222 
SCCF RECON,ioos:station:SCCF:13:1,2019-09-06T04:00:00Z,26.5255,-82.0032,2.33,30.46,11111222 
SCCF RECON,ioos:station:SCCF:13:1,2019-09-06T05:00:00Z,26.5255,-82.0032,2.33,30.4,11111222 
SCCF RECON,ioos:station:SCCF:13:1,2019-09-06T07:00:00Z,26.5255,-82.0032,2.33,30.39,11111222 
SCCF RECON,ioos:station:SCCF:13:1,2019-09-06T08:00:00Z,26.5255,-82.0032,2.33,30.34,11111222 
SCCF RECON,ioos:station:SCCF:13:1,2019-09-06T09:00:00Z,26.5255,-82.0032,2.33,29.88,11111222 
SCCF RECON,ioos:station:SCCF:13:1,2019-09-06T10:00:00Z,26.5255,-82.0032,2.33,29.95,11111222 
SCCF RECON,ioos:station:SCCF:13:1,2019-09-06T11:00:00Z,26.5255,-82.0032,2.33,29.97,11111222 
SCCF RECON,ioos:station:SCCF:13:1,2019-09-06T12:00:00Z,26.5255,-82.0032,2.33,29.89,11111222 
SCCF RECON,ioos:station:SCCF:13:1,2019-09-06T13:00:00Z,26.5255,-82.0032,2.33,29.96,11111222 
SCCF RECON,ioos:station:SCCF:13:1,2019-09-06T14:00:00Z,26.5255,-82.0032,2.33,29.76,11111222 
SCCF RECON,ioos:station:SCCF:13:1,2019-09-06T15:00:00Z,26.5255,-82.0032,2.33,30.01,11111222 
SCCF RECON,ioos:station:SCCF:13:1,2019-09-06T16:00:00Z,26.5255,-82.0032,2.33,30.25,11111222 
SCCF RECON,ioos:station:SCCF:13:1,2019-09-06T17:00:00Z,26.5255,-82.0032,2.33,30.44,11111222 
SCCF RECON,ioos:station:SCCF:13:1,2019-09-06T18:00:00Z,26.5255,-82.0032,2.33,30.75,11111222 
SCCF RECON,ioos:station:SCCF:13:1,2019-09-06T19:00:00Z,26.5255,-82.0032,2.33,30.86,11111222 
SCCF RECON,ioos:station:SCCF:13:1,2019-09-06T20:00:00Z,26.5255,-82.0032,2.33,30.81,11111222 
SCCF RECON,ioos:station:SCCF:13:1,2019-09-06T21:00:00Z,26.5255,-82.0032,2.33,30.93,11111222 
SCCF RECON,ioos:station:SCCF:13:1,2019-09-06T22:00:00Z,26.5255,-82.0032,2.33,30.97,11111222 
SCCF RECON,ioos:station:SCCF:13:1,2019-09-06T23:00:00Z,26.5255,-82.0032,2.33,31.3,11111222 
SCCF RECON,ioos:station:SCCF:13:1,2019-09-07T04:00:00Z,26.5255,-82.0032,2.33,30.54,11111222 
SCCF RECON,ioos:station:SCCF:13:1,2019-09-07T05:00:00Z,26.5255,-82.0032,2.33,30.56,11111222 
SCCF RECON,ioos:station:SCCF:13:1,2019-09-07T06:00:00Z,26.5255,-82.0032,2.33,30.62,11111222 
SCCF RECON,ioos:station:SCCF:13:1,2019-09-07T07:00:00Z,26.5255,-82.0032,2.33,30.58,11111222 
SCCF RECON,ioos:station:SCCF:13:1,2019-09-07T08:00:00Z,26.5255,-82.0032,2.33,30.49,11111222 
SCCF RECON,ioos:station:SCCF:13:1,2019-09-07T09:00:00Z,26.5255,-82.0032,2.33,30.53,11111222 
SCCF RECON,ioos:station:SCCF:13:1,2019-09-07T10:00:00Z,26.5255,-82.0032,2.33,30.6,11111222 
SCCF RECON,ioos:station:SCCF:13:1,2019-09-07T11:00:00Z,26.5255,-82.0032,2.33,30.53,11111222 
SCCF RECON,ioos:station:SCCF:13:1,2019-09-07T12:00:00Z,26.5255,-82.0032,2.33,30.47,11111222 
SCCF RECON,ioos:station:SCCF:13:1,2019-09-07T13:00:00Z,26.5255,-82.0032,2.33,30.56,11111222 
SCCF RECON,ioos:station:SCCF:13:1,2019-09-07T14:00:00Z,26.5255,-82.0032,2.33,30.56,11111222 
SCCF RECON,ioos:station:SCCF:13:1,2019-09-07T15:00:00Z,26.5255,-82.0032,2.33,30.54,11111222 
SCCF RECON,ioos:station:SCCF:13:1,2019-09-07T16:00:00Z,26.5255,-82.0032,2.33,30.47,11111222 
SCCF RECON,ioos:station:SCCF:13:1,2019-09-07T17:00:00Z,26.5255,-82.0032,2.33,30.97,11111222 
SCCF RECON,ioos:station:SCCF:13:1,2019-09-07T18:00:00Z,26.5255,-82.0032,2.33,31.23,11111222 
SCCF RECON,ioos:station:SCCF:13:1,2019-09-07T19:00:00Z,26.5255,-82.0032,2.33,31.35,11111222 
SCCF RECON,ioos:station:SCCF:13:1,2019-09-07T20:00:00Z,26.5255,-82.0032,2.33,31.45,11111222 
SCCF RECON,ioos:station:SCCF:13:1,2019-09-07T21:00:00Z,26.5255,-82.0032,2.33,31.43,11111222 
SCCF RECON,ioos:station:SCCF:13:1,2019-09-07T22:00:00Z,26.5255,-82.0032,2.33,31.46,11111222 
SCCF RECON,ioos:station:SCCF:13:1,2019-09-07T23:00:00Z,26.5255,-82.0032,2.33,31.43,11111222 
SCCF RECON,ioos:station:SCCF:13:1,2019-09-08T04:00:00Z,26.5255,-82.0032,2.33,30.94,11111222 
SCCF RECON,ioos:station:SCCF:13:1,2019-09-08T05:00:00Z,26.5255,-82.0032,2.33,30.96,11111222 
SCCF RECON,ioos:station:SCCF:13:1,2019-09-08T06:00:00Z,26.5255,-82.0032,2.33,30.9,11111222 
SCCF RECON,ioos:station:SCCF:13:1,2019-09-08T07:00:00Z,26.5255,-82.0032,2.33,31.09,11111222 
SCCF RECON,ioos:station:SCCF:13:1,2019-09-08T08:00:00Z,26.5255,-82.0032,2.33,31.1,11111222 
SCCF RECON,ioos:station:SCCF:13:1,2019-09-08T09:00:00Z,26.5255,-82.0032,2.33,30.94,11111222 
SCCF RECON,ioos:station:SCCF:13:1,2019-09-08T10:00:00Z,26.5255,-82.0032,2.33,30.95,11111222 
SCCF RECON,ioos:station:SCCF:13:1,2019-09-08T11:00:00Z,26.5255,-82.0032,2.33,30.63,11111222 
SCCF RECON,ioos:station:SCCF:13:1,2019-09-08T12:00:00Z,26.5255,-82.0032,2.33,30.86,11111222 
SCCF RECON,ioos:station:SCCF:13:1,2019-09-08T13:00:00Z,26.5255,-82.0032,2.33,30.9,11111222 
SCCF RECON,ioos:station:SCCF:13:1,2019-09-08T14:00:00Z,26.5255,-82.0032,2.33,30.82,11111222 
SCCF RECON,ioos:station:SCCF:13:1,2019-09-08T15:00:00Z,26.5255,-82.0032,2.33,30.75,11111222 
SCCF RECON,ioos:station:SCCF:13:1,2019-09-08T16:00:00Z,26.5255,-82.0032,2.33,30.8,11111222 
SCCF RECON,ioos:station:SCCF:13:1,2019-09-08T17:00:00Z,26.5255,-82.0032,2.33,30.95,11111222 
SCCF RECON,ioos:station:SCCF:13:1,2019-09-08T18:00:00Z,26.5255,-82.0032,2.33,31.29,11111222 
SCCF RECON,ioos:station:SCCF:13:1,2019-09-08T19:00:00Z,26.5255,-82.0032,2.33,31.78,11111222 
SCCF RECON,ioos:station:SCCF:13:1,2019-09-08T20:00:00Z,26.5255,-82.0032,2.33,31.96,11111222 
SCCF RECON,ioos:station:SCCF:13:1,2019-09-08T21:00:00Z,26.5255,-82.0032,2.33,32.05,11111222 
SCCF RECON,ioos:station:SCCF:13:1,2019-09-08T22:00:00Z,26.5255,-82.0032,2.33,31.93,11111222 
SCCF RECON,ioos:station:SCCF:13:1,2019-09-08T23:00:00Z,26.5255,-82.0032,2.33,31.78,11111222 
SCCF RECON,ioos:station:SCCF:13:1,2019-09-09T04:00:00Z,26.5255,-82.0032,2.33,31.42,11111222 
SCCF RECON,ioos:station:SCCF:13:1,2019-09-09T05:00:00Z,26.5255,-82.0032,2.33,31.45,11111222 
SCCF RECON,ioos:station:SCCF:13:1,2019-09-09T06:00:00Z,26.5255,-82.0032,2.33,31.47,11111222 
SCCF RECON,ioos:station:SCCF:13:1,2019-09-09T07:00:00Z,26.5255,-82.0032,2.33,31.48,11111222 
SCCF RECON,ioos:station:SCCF:13:1,2019-09-09T08:00:00Z,26.5255,-82.0032,2.33,31.37,11111222 
SCCF RECON,ioos:station:SCCF:13:1,2019-09-09T09:00:00Z,26.5255,-82.0032,2.33,31.4,11111222 
SCCF RECON,ioos:station:SCCF:13:1,2019-09-09T10:00:00Z,26.5255,-82.0032,2.33,31.29,11111222 
SCCF RECON,ioos:station:SCCF:13:1,2019-09-09T11:00:00Z,26.5255,-82.0032,2.33,31.35,11111222 
SCCF RECON,ioos:station:SCCF:13:1,2019-09-09T12:00:00Z,26.5255,-82.0032,2.33,31.1,11111222 
SCCF RECON,ioos:station:SCCF:13:1,2019-09-09T13:00:00Z,26.5255,-82.0032,2.33,30.75,11111222 
SCCF RECON,ioos:station:SCCF:13:1,2019-09-09T14:00:00Z,26.5255,-82.0032,2.33,31.31,11111222 
SCCF RECON,ioos:station:SCCF:13:1,2019-09-09T15:00:00Z,26.5255,-82.0032,2.33,31.37,11111222 
SCCF RECON,ioos:station:SCCF:13:1,2019-09-09T16:00:00Z,26.5255,-82.0032,2.33,31.26,11111222 
SCCF RECON,ioos:station:SCCF:13:1,2019-09-09T17:00:00Z,26.5255,-82.0032,2.33,31.21,11111222 
SCCF RECON,ioos:station:SCCF:13:1,2019-09-09T18:00:00Z,26.5255,-82.0032,2.33,31.39,11111222 
SCCF RECON,ioos:station:SCCF:13:1,2019-09-09T22:00:00Z,26.5255,-82.0032,2.33,32.26,11111222 
SCCF RECON,ioos:station:SCCF:13:1,2019-09-09T23:00:00Z,26.5255,-82.0032,2.33,31.77,11111222 
SCCF RECON,ioos:station:SCCF:13:1,2019-09-10T04:00:00Z,26.5255,-82.0032,2.33,31.88,11111222 
SCCF RECON,ioos:station:SCCF:13:1,2019-09-10T05:00:00Z,26.5255,-82.0032,2.33,31.57,11111222 
SCCF RECON,ioos:station:SCCF:13:1,2019-09-10T06:00:00Z,26.5255,-82.0032,2.33,31.48,11111222 
SCCF RECON,ioos:station:SCCF:13:1,2019-09-10T07:00:00Z,26.5255,-82.0032,2.33,31.48,11111222 
SCCF RECON,ioos:station:SCCF:13:1,2019-09-10T08:00:00Z,26.5255,-82.0032,2.33,31.43,11111222 
SCCF RECON,ioos:station:SCCF:13:1,2019-09-10T09:00:00Z,26.5255,-82.0032,2.33,31.3,11111222 
SCCF RECON,ioos:station:SCCF:13:1,2019-09-10T10:00:00Z,26.5255,-82.0032,2.33,31.26,11111222 
SCCF RECON,ioos:station:SCCF:13:1,2019-09-10T11:00:00Z,26.5255,-82.0032,2.33,31.0,11111222 
SCCF RECON,ioos:station:SCCF:13:1,2019-09-10T12:00:00Z,26.5255,-82.0032,2.33,31.44,11111222 
SCCF RECON,ioos:station:SCCF:13:1,2019-09-10T13:00:00Z,26.5255,-82.0032,2.33,30.96,11111222 
SCCF RECON,ioos:station:SCCF:13:1,2019-09-10T14:00:00Z,26.5255,-82.0032,2.33,31.06,11111222 
SCCF RECON,ioos:station:SCCF:13:1,2019-09-10T15:00:00Z,26.5255,-82.0032,2.33,31.24,11111222 
SCCF RECON,ioos:station:SCCF:13:1,2019-09-10T16:00:00Z,26.5255,-82.0032,2.33,31.44,11111222 
SCCF RECON,ioos:station:SCCF:13:1,2019-09-10T17:00:00Z,26.5255,-82.0032,2.33,31.49,11111222 
SCCF RECON,ioos:station:SCCF:13:1,2019-09-10T18:00:00Z,26.5255,-82.0032,2.33,31.47,11111222 
SCCF RECON,ioos:station:SCCF:13:1,2019-09-10T19:00:00Z,26.5255,-82.0032,2.33,31.55,11111222 
SCCF RECON,ioos:station:SCCF:13:1,2019-09-10T20:00:00Z,26.5255,-82.0032,2.33,32.13,11111222 
SCCF RECON,ioos:station:SCCF:13:1,2019-09-10T21:00:00Z,26.5255,-82.0032,2.33,32.14,11111222 
SCCF RECON,ioos:station:SCCF:13:1,2019-09-10T22:00:00Z,26.5255,-82.0032,2.33,31.93,11111222 
SCCF RECON,ioos:station:SCCF:13:1,2019-09-10T23:00:00Z,26.5255,-82.0032,2.33,31.68,11111222 
SCCF RECON,ioos:station:SCCF:13:1,2019-09-11T04:00:00Z,26.5255,-82.0032,2.33,31.55,11111222 
SCCF RECON,ioos:station:SCCF:13:1,2019-09-11T05:00:00Z,26.5255,-82.0032,2.33,31.29,11111222 
SCCF RECON,ioos:station:SCCF:13:1,2019-09-11T06:00:00Z,26.5255,-82.0032,2.33,31.0,11111222 
SCCF RECON,ioos:station:SCCF:13:1,2019-09-11T07:00:00Z,26.5255,-82.0032,2.33,30.84,11111222 
SCCF RECON,ioos:station:SCCF:13:1,2019-09-11T08:00:00Z,26.5255,-82.0032,2.33,30.94,11111222 
SCCF RECON,ioos:station:SCCF:13:1,2019-09-11T09:00:00Z,26.5255,-82.0032,2.33,30.72,11111222 
SCCF RECON,ioos:station:SCCF:13:1,2019-09-11T10:00:00Z,26.5255,-82.0032,2.33,30.13,11111222 
SCCF RECON,ioos:station:SCCF:13:1,2019-09-11T11:00:00Z,26.5255,-82.0032,2.33,29.93,11111222 
SCCF RECON,ioos:station:SCCF:13:1,2019-09-11T12:00:00Z,26.5255,-82.0032,2.33,30.49,11111222 
SCCF RECON,ioos:station:SCCF:13:1,2019-09-11T13:00:00Z,26.5255,-82.0032,2.33,30.66,11111222 
SCCF RECON,ioos:station:SCCF:13:1,2019-09-11T14:00:00Z,26.5255,-82.0032,2.33,30.46,11111222 
SCCF RECON,ioos:station:SCCF:13:1,2019-09-11T15:00:00Z,26.5255,-82.0032,2.33,30.81,11111222 
SCCF RECON,ioos:station:SCCF:13:1,2019-09-11T16:00:00Z,26.5255,-82.0032,2.33,30.69,11111222 
SCCF RECON,ioos:station:SCCF:13:1,2019-09-11T17:00:00Z,26.5255,-82.0032,2.33,30.8,11111222 
SCCF RECON,ioos:station:SCCF:13:1,2019-09-11T18:00:00Z,26.5255,-82.0032,2.33,30.95,11111222 
SCCF RECON,ioos:station:SCCF:13:1,2019-09-11T19:00:00Z,26.5255,-82.0032,2.33,30.94,11111222 
SCCF RECON,ioos:station:SCCF:13:1,2019-09-11T20:00:00Z,26.5255,-82.0032,2.33,31.1,11111222 
SCCF RECON,ioos:station:SCCF:13:1,2019-09-11T21:00:00Z,26.5255,-82.0032,2.33,31.08,11111222 
SCCF RECON,ioos:station:SCCF:13:1,2019-09-11T22:00:00Z,26.5255,-82.0032,2.33,30.96,11111222 
SCCF RECON,ioos:station:SCCF:13:1,2019-09-11T23:00:00Z,26.5255,-82.0032,2.33,30.69,11111222 
SCCF RECON,ioos:station:SCCF:13:1,2019-09-12T04:00:00Z,26.5255,-82.0032,2.33,30.63,11111222 
SCCF RECON,ioos:station:SCCF:13:1,2019-09-12T05:00:00Z,26.5255,-82.0032,2.33,30.47,11111222 
SCCF RECON,ioos:station:SCCF:13:1,2019-09-12T06:00:00Z,26.5255,-82.0032,2.33,30.18,11111222 
SCCF RECON,ioos:station:SCCF:13:1,2019-09-12T07:00:00Z,26.5255,-82.0032,2.33,30.12,11111222 
SCCF RECON,ioos:station:SCCF:13:1,2019-09-12T08:00:00Z,26.5255,-82.0032,2.33,30.16,11111222 
SCCF RECON,ioos:station:SCCF:13:1,2019-09-12T09:00:00Z,26.5255,-82.0032,2.33,30.05,11111222 
SCCF RECON,ioos:station:SCCF:13:1,2019-09-12T10:00:00Z,26.5255,-82.0032,2.33,30.02,11111222 
SCCF RECON,ioos:station:SCCF:13:1,2019-09-12T11:00:00Z,26.5255,-82.0032,2.33,29.67,11111222 
SCCF RECON,ioos:station:SCCF:13:1,2019-09-12T12:00:00Z,26.5255,-82.0032,2.33,29.41,11111222 
SCCF RECON,ioos:station:SCCF:13:1,2019-09-12T13:00:00Z,26.5255,-82.0032,2.33,29.84,11111222 
SCCF RECON,ioos:station:SCCF:13:1,2019-09-12T14:00:00Z,26.5255,-82.0032,2.33,29.54,11111222 
SCCF RECON,ioos:station:SCCF:13:1,2019-09-12T15:00:00Z,26.5255,-82.0032,2.33,29.96,11111222 
SCCF RECON,ioos:station:SCCF:13:1,2019-09-12T16:00:00Z,26.5255,-82.0032,2.33,30.29,11111222 
SCCF RECON,ioos:station:SCCF:13:1,2019-09-13T20:00:00Z,26.5255,-82.0032,2.33,29.81,11111222 
SCCF RECON,ioos:station:SCCF:13:1,2019-09-13T21:00:00Z,26.5255,-82.0032,2.33,29.76,11111222 
SCCF RECON,ioos:station:SCCF:13:1,2019-09-13T22:00:00Z,26.5255,-82.0032,2.33,29.62,11111222 
SCCF RECON,ioos:station:SCCF:13:1,2019-09-13T23:00:00Z,26.5255,-82.0032,2.33,29.55,11111222 
SCCF RECON,ioos:station:SCCF:13:1,2019-09-14T04:00:00Z,26.5255,-82.0032,2.33,29.21,11111222 
SCCF RECON,ioos:station:SCCF:13:1,2019-09-14T05:00:00Z,26.5255,-82.0032,2.33,29.3,11111222 
SCCF RECON,ioos:station:SCCF:13:1,2019-09-14T06:00:00Z,26.5255,-82.0032,2.33,29.07,11111222 
SCCF RECON,ioos:station:SCCF:13:1,2019-09-14T07:00:00Z,26.5255,-82.0032,2.33,29.1,11111222 
SCCF RECON,ioos:station:SCCF:13:1,2019-09-14T08:00:00Z,26.5255,-82.0032,2.33,29.06,11111222 
SCCF RECON,ioos:station:SCCF:13:1,2019-09-14T09:00:00Z,26.5255,-82.0032,2.33,29.06,11111222 
SCCF RECON,ioos:station:SCCF:13:1,2019-09-14T10:00:00Z,26.5255,-82.0032,2.33,29.03,11111222 
SCCF RECON,ioos:station:SCCF:13:1,2019-09-14T11:00:00Z,26.5255,-82.0032,2.33,28.76,11111222 
SCCF RECON,ioos:station:SCCF:13:1,2019-09-14T12:00:00Z,26.5255,-82.0032,2.33,28.29,11111222 
SCCF RECON,ioos:station:SCCF:13:1,2019-09-14T13:00:00Z,26.5255,-82.0032,2.33,28.26,11111222 
SCCF RECON,ioos:station:SCCF:13:1,2019-09-14T14:00:00Z,26.5255,-82.0032,2.33,28.29,11111222 
SCCF RECON,ioos:station:SCCF:13:1,2019-09-14T15:00:00Z,26.5255,-82.0032,2.33,28.78,11111222 
SCCF RECON,ioos:station:SCCF:13:1,2019-09-14T16:00:00Z,26.5255,-82.0032,2.33,28.92,11111222 
SCCF RECON,ioos:station:SCCF:13:1,2019-09-14T17:00:00Z,26.5255,-82.0032,2.33,29.09,11111222 
SCCF RECON,ioos:station:SCCF:13:1,2019-09-14T18:00:00Z,26.5255,-82.0032,2.33,29.23,11111222 
SCCF RECON,ioos:station:SCCF:13:1,2019-09-14T19:00:00Z,26.5255,-82.0032,2.33,29.28,11111222 
SCCF RECON,ioos:station:SCCF:13:1,2019-09-14T20:00:00Z,26.5255,-82.0032,2.33,29.48,11111222 
SCCF RECON,ioos:station:SCCF:13:1,2019-09-14T21:00:00Z,26.5255,-82.0032,2.33,29.5,11111222 
SCCF RECON,ioos:station:SCCF:13:1,2019-09-14T22:00:00Z,26.5255,-82.0032,2.33,29.41,11111222 
SCCF RECON,ioos:station:SCCF:13:1,2019-09-14T23:00:00Z,26.5255,-82.0032,2.33,29.3,11111222 
SCCF RECON,ioos:station:SCCF:13:1,2019-09-15T04:00:00Z,26.5255,-82.0032,2.33,28.95,11111222 
SCCF RECON,ioos:station:SCCF:13:1,2019-09-15T05:00:00Z,26.5255,-82.0032,2.33,29.02,11111222 
SCCF RECON,ioos:station:SCCF:13:1,2019-09-15T06:00:00Z,26.5255,-82.0032,2.33,29.06,11111222 
SCCF RECON,ioos:station:SCCF:13:1,2019-09-15T07:00:00Z,26.5255,-82.0032,2.33,28.98,11111222 
SCCF RECON,ioos:station:SCCF:13:1,2019-09-15T08:00:00Z,26.5255,-82.0032,2.33,28.93,11111222 
SCCF RECON,ioos:station:SCCF:13:1,2019-09-15T09:00:00Z,26.5255,-82.0032,2.33,28.94,11111222 